[[{"header":{"parameterUnit":"m.s-1","parameterCategory":1,"la1":30.2991,"la2":30.254,"lo1":-89.0895,"lo2":-89.0444,"dy":0.0017,"dx":0.0017,"nx":28,"ny":28,"refTime":"2023-10-09T09:00:00:Z","depth":0,"parameterNumber":2,"parameterNumberName":"U-component_of_WINDS"},"data":[0,0,0,0,0,0,0,0,0,0,0,0,0,0,0,0,0,0,0,0,0,0,0,0,0,0,0,0,0,0,0,0,0,0,0,0,0,0,0,0,0,0,0,0,0,0,0,0,0,0,0,0,0,0,0,0,0,0,3.5146,3.5147,0,3.5239,3.524,3.5241,3.5207,3.5205,3.5202,3.52,3.5293,3.5297,3.5301,0,0,0,0,0,0,0,0,0,0,0,0,0,3.4932,3.4936,3.5146,3.5147,3.5148,3.5239,3.524,3.5242,3.5207,3.5204,3.5202,3.52,3.5291,3.5296,3.5302,0,0,0,0,0,0,0,0,0,0,0,0,0,3.5025,3.4938,3.5146,3.5142,3.5143,3.5239,3.524,3.5242,3.5208,3.5204,3.5201,3.5198,3.5289,3.5296,3.5302,3.5407,0,0,3.5323,3.5326,0,0,0,0,0,0,0,0,3.502,3.5033,3.5141,3.5143,3.5143,3.5208,3.5199,3.5297,3.5208,3.5183,3.52,3.5197,3.5267,3.5275,3.5299,3.5411,3.5415,3.5323,3.5327,3.533,3.5332,0,0,0,0,0,0,0,3.5014,3.5029,3.5183,3.5143,3.5144,3.5134,3.5143,3.5217,3.5241,3.5185,3.5183,3.5194,3.5267,3.5293,3.5301,3.5416,3.5323,3.5329,3.5333,3.5336,3.5612,3.5615,0,0,0,0,0,0,3.5007,3.5024,3.518,3.5185,3.5073,3.514,3.5151,3.519,3.5241,3.5245,3.5197,3.5192,3.5283,3.5294,3.5305,3.5425,3.533,3.5336,3.534,3.5609,3.5613,3.5616,0,0,0,0,0,0,3.5003,3.5022,3.5176,3.5104,3.5123,3.5147,3.5192,3.5194,3.522,3.525,3.5253,3.522,3.5281,3.5295,3.538,3.5428,3.5339,3.5345,3.5605,3.561,3.5614,3.5671,0,0,0,0,0,0,3.4997,3.502,3.5062,3.5105,3.5127,3.5252,3.5195,3.5198,3.5232,3.5227,3.5272,3.5276,3.528,3.5371,3.5387,3.5436,3.5351,3.56,3.5607,3.5613,3.5665,3.5677,3.5688,0,0,0,0,0,3.4989,3.5075,3.5064,3.5083,3.518,3.5255,3.5267,3.5271,3.5237,3.5277,3.5295,3.5275,3.5421,3.538,3.5398,3.5449,3.5597,3.5605,3.5612,3.566,3.5675,3.5688,0,0,0,0,0,0,3.5036,3.508,3.5069,3.5172,3.521,3.5249,3.5301,3.5288,3.5336,3.5329,3.533,3.534,3.5427,3.5447,3.54,3.555,3.5504,3.5515,3.5533,3.5548,3.556,3.5551,3.5356,0,0,0,0,0,3.5059,3.5118,3.5153,3.5239,3.5259,3.5277,3.531,3.5309,3.5348,3.5364,3.5389,3.5426,3.548,3.5516,3.5568,3.5668,3.5675,3.5712,3.5724,3.5733,3.5742,3.5792,3.5807,3.5641,3.5641,3.5641,0,0,3.5105,3.5136,3.5174,3.5249,3.5279,3.5338,3.5291,3.5356,3.5399,3.5374,3.5455,3.5474,3.5516,3.5608,3.565,3.5627,3.579,3.5743,3.575,3.5754,3.5801,3.5817,3.5831,3.5646,3.5645,3.5644,0,0,3.5219,3.5251,3.5324,3.5354,3.5399,3.541,3.5427,3.5468,3.548,3.5561,3.5542,3.5592,3.5687,3.5715,3.5743,3.5863,3.5845,3.588,3.594,3.5988,3.6001,3.6012,3.6051,3.6065,3.589,3.589,3.589,0,3.5271,3.536,3.5363,3.5429,3.546,3.5441,3.5512,3.5541,3.5601,3.5622,3.5596,3.5711,3.5738,3.5834,3.5863,3.5888,3.5904,3.5874,3.5999,3.6011,3.6021,3.6058,3.6073,3.5894,3.5893,3.5893,3.5892,0,3.5419,3.5481,3.5534,3.5591,3.5629,3.5698,3.5708,3.5746,3.5741,3.5753,3.5834,3.5866,3.5921,3.5944,3.5941,3.6039,3.6023,3.5999,3.5951,3.6041,3.6075,3.609,3.5899,3.5897,3.5896,3.5896,0,0,3.5566,3.5621,3.564,3.5663,3.571,3.5757,3.5823,3.5877,3.5907,3.5949,3.6001,3.608,3.6056,3.6087,3.6086,3.6129,3.6216,3.6099,3.6099,3.6116,3.6321,3.6336,3.6353,3.6206,3.6209,3.6211,3.6316,0,3.568,3.5796,3.5799,3.5905,3.5959,3.5939,3.5996,3.6029,3.6042,3.6088,3.6101,3.6155,3.6123,3.614,3.6182,3.6197,3.6257,3.619,3.6251,3.6253,3.6238,3.6372,3.6389,3.6487,3.633,3.6332,3.6334,0,3.5829,3.5873,3.5984,3.6019,3.6042,3.6093,3.614,3.6186,3.6222,3.6227,3.626,3.6252,3.6315,3.6268,3.6353,3.6308,3.6333,3.6344,3.6347,3.635,3.6297,3.6374,3.6519,3.6532,3.6356,3.6354,3.6353,0,3.5919,3.6007,3.6083,3.6105,3.6148,3.6183,3.6203,3.6236,3.6267,3.6308,3.6327,3.6375,3.6401,3.6437,3.644,3.6406,3.6525,3.6479,3.6528,3.6528,3.6552,3.655,3.6698,3.6574,3.6574,3.6574,3.6573,0,3.6045,3.6112,3.6124,3.617,3.6244,3.6245,3.6317,3.6334,3.6362,3.6409,3.6396,3.644,3.6444,3.6488,3.6492,3.6559,3.6572,3.6576,3.6575,3.6575,3.6574,3.6589,3.6581,3.6578,3.6577,3.6576,3.6575,0,3.6157,3.6168,3.6249,3.6283,3.6293,3.6345,3.6372,3.6415,3.6425,3.6485,3.6499,3.6515,3.6566,3.6574,3.6635,3.6636,3.6716,3.671,3.6704,3.6702,3.6749,3.6742,3.6909,3.6929,3.6796,3.6797,3.6798,0,3.6235,3.6286,3.6324,3.6355,3.6376,3.6426,3.6456,3.6459,3.6491,3.6533,3.657,3.662,3.666,3.6742,3.6758,3.6803,3.6796,3.6851,3.6802,3.6799,3.6791,3.6787,3.6789,3.6859,3.6861,3.6862,3.6863,0,3.637,3.6372,3.6417,3.6463,3.65,3.6537,3.6571,3.6596,3.6603,3.6639,3.6691,3.6722,3.6782,3.6831,3.6875,3.6892,3.6877,3.6878,3.6891,3.689,3.6882,3.6882,3.6725,3.6874,3.6873,3.6872,3.6871,3.6871,3.6465,3.6507,3.6539,3.6589,3.6615,3.6646,3.6686,3.6701,3.6745,3.6794,3.6792,3.6848,3.6879,3.6936,3.6956,3.6998,3.698,3.7,3.7005,3.7008,3.7011,3.6878,3.7007,3.7007,3.7007,3.7006,3.7006,0,3.6596,3.6615,3.666,3.6707,3.6745,3.6729,3.6765,3.6797,3.6846,3.6876,3.6915,3.6972,3.7018,3.7037,3.7081,3.7111,3.7104,3.7122,3.7118,3.7121,3.7027,3.7009,3.7125,3.7125,3.7125,3.7125,3.7125,3.7125,3.6668,3.6737,3.6742,3.6822,3.684,3.6895,3.6916,3.6944,3.6967,3.7032,3.7069,3.7081,3.7105,3.715,3.719,3.7194,3.7209,3.7228,3.7229,3.714,3.7128,3.7117,3.71,3.7233,3.7233,3.7319,3.732,3.732]},{"header":{"parameterUnit":"m.s-1","parameterCategory":1,"la1":30.2991,"la2":30.254,"lo1":-89.0895,"lo2":-89.0444,"dy":0.0017,"dx":0.0017,"nx":28,"ny":28,"refTime":"2023-10-09T09:00:00:Z","depth":0,"parameterNumber":3,"parameterNumberName":"V-component_of_WINDS"},"data":[0,0,0,0,0,0,0,0,0,0,0,0,0,0,0,0,0,0,0,0,0,0,0,0,0,0,0,0,0,0,0,0,0,0,0,0,0,0,0,0,0,0,0,0,0,0,0,0,0,0,0,0,0,0,0,0,0,0,1.2488,1.2489,0,1.2572,1.2573,1.2574,1.2577,1.2576,1.2575,1.2574,1.266,1.2663,1.2666,0,0,0,0,0,0,0,0,0,0,0,0,0,1.2329,1.2331,1.2488,1.2489,1.249,1.2572,1.2573,1.2575,1.2577,1.2576,1.2574,1.2573,1.2659,1.2663,1.2667,0,0,0,0,0,0,0,0,0,0,0,0,0,1.2404,1.2332,1.2488,1.2501,1.2503,1.2572,1.2573,1.2575,1.2577,1.2576,1.2574,1.2573,1.2658,1.2662,1.2667,1.2728,0,0,1.2682,1.2684,0,0,0,0,0,0,0,0,1.24,1.241,1.2498,1.2501,1.2503,1.2562,1.2549,1.2626,1.2577,1.2549,1.2574,1.2572,1.2629,1.2636,1.2655,1.2732,1.2736,1.2682,1.2685,1.2688,1.2689,0,0,0,0,0,0,0,1.2394,1.2406,1.2522,1.25,1.2502,1.2503,1.2512,1.2563,1.2597,1.2551,1.2552,1.2562,1.263,1.265,1.2657,1.2737,1.2682,1.2687,1.269,1.2692,1.2867,1.2868,0,0,0,0,0,0,1.2387,1.2402,1.2519,1.2524,1.2446,1.2507,1.2517,1.2545,1.2596,1.2602,1.2563,1.2562,1.2643,1.2651,1.266,1.2734,1.2688,1.2692,1.2695,1.2865,1.2867,1.2869,0,0,0,0,0,0,1.2383,1.2397,1.2516,1.2463,1.2478,1.2511,1.2543,1.2547,1.2568,1.2605,1.2611,1.2578,1.2642,1.2653,1.2711,1.2737,1.2694,1.2699,1.2863,1.2866,1.2868,1.2882,0,0,0,0,0,0,1.2378,1.2396,1.242,1.2464,1.2481,1.2565,1.2544,1.255,1.2576,1.2575,1.262,1.2626,1.2642,1.2703,1.2716,1.2743,1.2703,1.2861,1.2864,1.2867,1.288,1.2885,1.289,0,0,0,0,0,1.2373,1.2421,1.2421,1.2435,1.2512,1.2567,1.2577,1.2593,1.2579,1.2603,1.2626,1.2625,1.2732,1.2709,1.2723,1.2752,1.2859,1.2863,1.2867,1.2877,1.2884,1.289,0,0,0,0,0,0,1.238,1.2427,1.2428,1.2492,1.2525,1.2567,1.2598,1.26,1.2639,1.2636,1.2654,1.2665,1.2721,1.2743,1.2717,1.2813,1.2794,1.2801,1.2797,1.2804,1.2809,1.2802,1.2707,0,0,0,0,0,1.2389,1.243,1.2469,1.2521,1.2538,1.2565,1.259,1.2599,1.2635,1.2649,1.2677,1.2711,1.2752,1.2779,1.2819,1.2882,1.2892,1.2909,1.2914,1.2918,1.2924,1.2957,1.2965,1.2881,1.2881,1.2881,0,0,1.2408,1.2439,1.2464,1.2524,1.2551,1.2592,1.2577,1.2622,1.2653,1.2656,1.2712,1.2733,1.2772,1.2833,1.286,1.2852,1.2948,1.2923,1.2926,1.2929,1.2961,1.2969,1.2976,1.2884,1.2884,1.2883,0,0,1.2464,1.2492,1.2538,1.2565,1.2606,1.2623,1.2634,1.2676,1.269,1.2746,1.2748,1.2785,1.2856,1.2883,1.2907,1.297,1.297,1.2983,1.3009,1.3041,1.3048,1.3054,1.3075,1.3083,1.2988,1.2988,1.2988,0,1.2483,1.2546,1.2562,1.2606,1.2632,1.2636,1.2682,1.2707,1.2759,1.2776,1.2766,1.2854,1.2881,1.2947,1.2962,1.2981,1.2993,1.2978,1.3045,1.3052,1.3057,1.3078,1.3086,1.2989,1.2989,1.2989,1.2989,0,1.2566,1.2609,1.2642,1.2691,1.272,1.2765,1.2787,1.2815,1.2821,1.2839,1.2895,1.2927,1.2973,1.2989,1.2996,1.3055,1.3048,1.3042,1.3023,1.3066,1.3086,1.3094,1.2991,1.2991,1.299,1.299,0,0,1.2631,1.2686,1.2698,1.2719,1.2764,1.2797,1.2842,1.2886,1.2909,1.2944,1.2981,1.304,1.3033,1.3059,1.3069,1.3097,1.3144,1.3087,1.3088,1.3096,1.3209,1.3214,1.3223,1.3144,1.3146,1.3147,1.3206,0,1.2691,1.277,1.2784,1.2853,1.2893,1.2896,1.2934,1.2965,1.2983,1.3018,1.3038,1.3078,1.3067,1.3083,1.3111,1.3132,1.3167,1.3128,1.3178,1.318,1.3168,1.3234,1.3239,1.3293,1.3214,1.3215,1.3216,0,1.2772,1.2808,1.288,1.2917,1.2935,1.2969,1.301,1.3044,1.3078,1.3089,1.3117,1.3123,1.3169,1.3147,1.3209,1.3183,1.3204,1.3217,1.3219,1.3225,1.32,1.324,1.3311,1.3318,1.3229,1.3228,1.3227,0,1.281,1.2877,1.2928,1.2947,1.2992,1.3016,1.3035,1.3068,1.3093,1.3129,1.3145,1.3185,1.3207,1.3238,1.3254,1.3237,1.3314,1.3295,1.3324,1.3323,1.334,1.3338,1.3414,1.3354,1.3354,1.3354,1.3354,0,1.2875,1.2919,1.2946,1.2977,1.3026,1.3042,1.309,1.3109,1.3138,1.3173,1.3178,1.3211,1.3231,1.3266,1.3279,1.3327,1.3337,1.3346,1.3349,1.3346,1.3344,1.336,1.3356,1.3356,1.3356,1.3355,1.3355,0,1.2926,1.2946,1.3002,1.3039,1.305,1.3084,1.3116,1.3146,1.3163,1.3207,1.3218,1.3244,1.3286,1.3305,1.3356,1.3365,1.342,1.342,1.3408,1.3409,1.3436,1.3433,1.3524,1.3536,1.3469,1.3469,1.347,0,1.2966,1.3,1.3041,1.3064,1.3084,1.3122,1.3147,1.3163,1.3189,1.323,1.3255,1.3296,1.333,1.3396,1.342,1.3458,1.346,1.3489,1.3465,1.346,1.3459,1.3456,1.3459,1.3493,1.3494,1.3494,1.3495,0,1.3035,1.3043,1.3079,1.3117,1.3147,1.3179,1.3209,1.3228,1.3249,1.3278,1.332,1.3346,1.3398,1.3438,1.3478,1.3498,1.3499,1.3501,1.351,1.3507,1.3497,1.3501,1.3419,1.3499,1.3499,1.3499,1.3498,1.3498,1.3082,1.3111,1.3143,1.3183,1.3207,1.3235,1.3265,1.3285,1.332,1.3363,1.3371,1.3415,1.3447,1.35,1.3521,1.3556,1.3549,1.3562,1.3565,1.3567,1.3568,1.3492,1.3563,1.3563,1.3563,1.3563,1.3563,0,1.3149,1.317,1.3206,1.3248,1.3279,1.3277,1.3311,1.3336,1.3375,1.3404,1.3437,1.3484,1.3523,1.3549,1.3588,1.3611,1.3612,1.362,1.3618,1.3623,1.3573,1.3561,1.3618,1.3618,1.3618,1.3618,1.3618,1.3618,1.3188,1.3237,1.3248,1.3309,1.3329,1.3373,1.3392,1.3417,1.344,1.3493,1.3525,1.3541,1.3569,1.361,1.3645,1.3651,1.3665,1.3673,1.3679,1.3632,1.3626,1.3621,1.361,1.3676,1.3676,1.3726,1.3727,1.3727]}]]